Flag for U.S.A. Weather past 2 weeks in Springfield, Illinois, U.S.A.

Now
70 °F

Sunny.


Feels Like: 76 °F
Forecast: 55 / 69 °F
Wind: 20 mph from South

Location: Capital Airport

Current Time: Apr 1, 2015 at 7:55:17 PM

Latest Report: Apr 1, 2015 at 6:52 PM


Visibility: 10 mi

Pressure: 29.89 "Hg

Humidity: 31%

Dew point: 38 °F

Location of SpringfieldLocation

Historic Weather in Springfield — Graph

°F

Springfield temperature yesterday

Maximum temperature yesterday: 72 °F (at 4:52 PM)
Minimum temperature yesterday: 43 °F (at 6:52 AM)
Average temperature yesterday: 58 °F

Past Weeks' High & Low Weather Summary

 TemperatureHumidityPressure
High76 °F (Apr 1, 2:52 PM)100% (Mar 25, 12:52 AM)30.37 "Hg (Mar 25, 12:52 AM)
Low23 °F (Mar 28, 5:52 AM)23% (Mar 30, 2:52 PM)29.83 "Hg (Mar 25, 12:52 AM)
Average44 °F62%30.12 "Hg
* Reported Mar 17 6:52 PM — Apr 1 6:52 PM, Springfield, Weather by CustomWeather, © 2015

Note: Actual official high and low records may vary slightly from our data, if they occured in-between our weather recording intervals... More about our weather records

Advertising

Springfield weather history for previous 24 hours

 ConditionsComfort  
Time TempWeatherWind HumidityBarometerVisibility
6:52 PM
Wed, Apr 1
70 °FSunny.20 mph31%29.89 "Hg10 mi
5:52 PM73 °FSunny.20 mph29%29.90 "Hg10 mi
4:52 PM73 °FSunny.22 mph30%29.90 "Hg10 mi
3:52 PM76 °FSunny.22 mph30%29.92 "Hg10 mi
2:52 PM76 °FSunny.18 mph30%29.95 "Hg10 mi
1:52 PM74 °FSunny.14 mph32%29.97 "Hg10 mi
12:52 PM72 °FSunny.18 mph35%30.00 "Hg10 mi
11:52 AM71 °FSunny.20 mph32%30.01 "Hg10 mi
10:52 AM67 °FSunny.15 mph39%30.02 "Hg10 mi
9:52 AM62 °FSunny.10 mph44%30.03 "Hg10 mi
8:52 AM56 °FSunny.10 mph51%30.04 "Hg10 mi
7:52 AM51 °FSunny.8 mph61%30.03 "Hg10 mi
6:52 AM47 °FClear.7 mph66%30.01 "Hg10 mi
5:52 AM46 °FClear.8 mph68%30.00 "Hg10 mi
4:52 AM48 °FClear.8 mph63%29.98 "Hg10 mi
3:52 AM44 °FClear.8 mph71%29.96 "Hg10 mi
2:52 AM43 °FClear.5 mph76%29.97 "Hg10 mi
1:52 AM44 °FClear.3 mph68%29.98 "Hg10 mi
12:52 AM46 °FClear.3 mph66%29.99 "Hg10 mi
11:52 PM
Tue, Mar 31
47 °FClear.No wind61%29.99 "Hg10 mi
10:52 PM49 °FClear.3 mph57%29.98 "Hg10 mi
9:52 PM52 °FClear.No wind50%29.97 "Hg10 mi
8:52 PM55 °FClear.No wind45%29.96 "Hg10 mi
7:52 PM61 °FSunny.No wind36%29.93 "Hg10 mi
Weather by CustomWeather, © 2015

See weather overviewHow to use our weather pages